Total_Precipitation_Accumulation
1.49 1.41 1.30 1.18 1.17 1.19 1.22 1.29 1.44 1.35 1.08 0.81 0.76 0.78 0.83 0.89 1.03 1.00 0.95 1.13 1.17 1.18 1.23 1.26 1.27 1.20 1.16 1.18 1.26 1.33 1.40 1.46 1.52 1.59 1.61 1.58 1.60 1.70
1.36 1.38 1.33 1.22 1.17 1.19 1.25 1.31 1.40 1.46 1.29 0.93 0.81 0.82 0.93 1.02 1.18 1.10 1.01 1.19 1.17 1.16 1.18 1.16 1.11 1.07 1.04 1.03 1.06 1.15 1.20 1.23 1.30 1.43 1.56 1.62 1.69 1.80
1.26 1.31 1.32 1.29 1.29 1.27 1.32 1.38 1.44 1.53 1.52 1.19 0.99 0.94 0.98 1.00 1.05 1.02 0.97 0.99 0.99 1.11 1.05 1.00 0.97 0.95 0.93 0.90 0.90 0.95 1.01 1.08 1.14 1.23 1.36 1.47 1.50 1.53
1.17 1.23 1.27 1.29 1.35 1.35 1.39 1.42 1.44 1.45 1.46 1.35 1.12 0.98 0.93 0.89 0.89 0.90 0.88 0.85 0.81 0.95 0.93 0.88 0.86 0.87 0.88 0.85 0.82 0.83 0.89 0.96 1.01 1.06 1.10 1.16 1.20 1.22
1.03 1.07 1.08 1.15 1.24 1.27 1.31 1.35 1.34 1.33 1.33 1.26 1.07 0.90 0.83 0.82 0.86 0.86 0.81 0.77 0.71 0.77 0.81 0.78 0.74 0.76 0.80 0.79 0.78 0.77 0.74 0.74 0.75 0.79 0.86 0.95 1.03 1.06
0.94 0.97 0.99 1.03 1.09 1.15 1.23 1.26 1.26 1.27 1.28 1.26 1.15 0.97 0.84 0.78 0.80 0.82 0.80 0.72 0.67 0.63 0.73 0.73 0.73 0.72 0.72 0.65 0.60 0.60 0.60 0.61 0.67 0.71 0.76 0.81 0.87 0.95
0.95 1.00 1.05 1.17 1.17 1.13 1.11 1.09 1.12 1.18 1.22 1.22 1.12 0.97 0.84 0.76 0.75 0.71 0.71 0.73 0.73 0.66 0.67 0.66 0.65 0.65 0.65 0.64 0.61 0.57 0.57 0.61 0.66 0.70 0.77 0.83 0.86 0.91
0.98 0.98 1.02 1.13 1.11 1.08 1.03 0.99 1.01 1.09 1.14 1.10 0.98 0.83 0.67 0.58 0.59 0.66 0.73 0.82 0.83 0.65 0.63 0.65 0.63 0.67 0.61 0.58 0.63 0.60 0.56 0.59 0.63 0.67 0.71 0.76 0.79 0.83
0.96 0.95 0.90 0.87 0.91 0.81 0.86 0.91 0.92 0.92 0.90 0.86 0.83 0.70 0.60 0.56 0.65 0.77 0.79 0.79 0.69 0.55 0.63 0.76 0.70 0.68 0.59 0.58 0.65 0.60 0.58 0.60 0.63 0.64 0.65 0.68 0.73 0.77
0.82 0.80 0.76 0.71 0.69 0.71 0.73 0.78 0.70 0.65 0.65 0.62 0.61 0.58 0.58 0.62 0.73 0.84 0.89 0.92 0.82 0.72 0.71 0.79 0.69 0.64 0.57 0.56 0.63 0.60 0.60 0.63 0.67 0.69 0.70 0.70 0.72 0.76
0.63 0.62 0.62 0.59 0.68 0.77 0.72 0.67 0.60 0.57 0.62 0.65 0.67 0.68 0.74 0.81 0.85 0.92 1.01 1.11 1.02 0.77 0.65 0.65 0.59 0.56 0.56 0.57 0.61 0.66 0.63 0.63 0.66 0.70 0.74 0.77 0.76 0.77
0.44 0.44 0.51 0.53 0.64 0.73 0.65 0.63 0.59 0.50 0.49 0.55 0.58 0.58 0.57 0.64 0.77 0.78 0.86 1.12 1.03 0.79 0.50 0.54 0.58 0.66 0.83 0.60 0.53 0.58 0.63 0.67 0.65 0.65 0.68 0.73 0.81 0.84
0.41 0.39 0.41 0.53 0.59 0.63 0.64 0.57 0.56 0.58 0.55 0.54 0.56 0.56 0.56 0.58 0.61 0.61 0.67 0.95 1.15 0.89 0.46 0.69 0.91 0.78 0.95 0.72 0.51 0.51 0.53 0.60 0.65 0.66 0.67 0.69 0.77 0.92
0.41 0.38 0.41 0.56 0.62 0.62 0.59 0.57 0.64 0.68 0.60 0.61 0.62 0.60 0.56 0.54 0.52 0.53 0.57 0.63 0.74 0.76 0.57 0.84 1.27 1.04 1.15 0.95 0.59 0.49 0.52 0.55 0.61 0.65 0.66 0.78 0.84 0.90
0.44 0.47 0.52 0.57 0.60 0.57 0.57 0.60 0.61 0.58 0.57 0.60 0.58 0.51 0.48 0.50 0.56 0.62 0.65 0.66 0.67 0.65 0.63 0.67 0.92 1.02 1.28 1.26 0.83 0.54 0.55 0.59 0.59 0.66 0.74 0.79 0.84 0.93
0.51 0.52 0.55 0.57 0.57 0.55 0.55 0.55 0.53 0.53 0.57 0.60 0.56 0.54 0.58 0.64 0.67 0.68 0.75 0.75 0.80 0.72 0.63 0.59 0.67 0.98 1.24 1.00 0.97 0.80 0.63 0.69 0.65 0.72 0.80 0.78 0.75 0.81
0.62 0.59 0.55 0.52 0.51 0.50 0.49 0.48 0.50 0.53 0.57 0.56 0.62 0.66 0.66 0.67 0.66 0.66 0.74 0.81 0.84 0.68 0.60 0.59 0.62 0.73 0.89 0.96 0.98 0.75 0.65 0.70 0.75 0.85 0.96 0.94 0.78 0.77
0.74 0.64 0.53 0.47 0.45 0.45 0.47 0.49 0.51 0.53 0.54 0.60 0.66 0.70 0.73 0.73 0.71 0.67 0.72 0.82 0.80 0.66 0.60 0.60 0.70 0.88 0.87 0.77 0.70 0.70 0.72 0.76 0.76 0.82 0.95 1.13 0.93 0.75
0.67 0.54 0.46 0.45 0.45 0.46 0.50 0.53 0.53 0.52 0.58 0.66 0.72 0.75 0.79 0.80 0.80 0.78 0.76 0.80 0.77 0.68 0.62 0.63 0.81 1.21 1.30 0.83 0.51 0.53 0.77 0.86 0.85 0.91 0.97 1.14 1.18 0.90
0.49 0.44 0.44 0.45 0.49 0.53 0.56 0.58 0.59 0.60 0.64 0.67 0.70 0.76 0.84 0.91 0.88 0.81 0.78 0.82 0.83 0.77 0.69 0.63 0.70 1.06 1.50 1.24 0.89 0.53 0.55 0.82 1.14 1.24 1.04 0.93 0.92 0.86
0.42 0.41 0.45 0.51 0.56 0.60 0.62 0.65 0.70 0.71 0.69 0.75 0.76 0.77 0.84 0.97 0.93 0.80 0.80 0.80 0.87 0.88 0.80 0.62 0.54 0.70 1.11 1.49 1.24 0.66 0.55 0.63 0.93 1.37 1.42 1.35 1.09 0.86
0.48 0.49 0.50 0.55 0.61 0.65 0.68 0.72 0.75 0.75 0.77 0.81 0.82 0.82 0.85 0.96 0.98 0.89 0.88 0.92 0.86 0.80 0.77 0.67 0.66 0.80 1.09 1.41 1.09 0.65 0.57 0.60 0.67 0.74 1.04 1.59 2.08 1.88
0.56 0.58 0.58 0.61 0.67 0.72 0.76 0.77 0.76 0.73 0.75 0.82 0.83 0.83 0.87 0.92 0.87 0.90 0.91 0.94 0.98 0.92 0.88 0.85 0.79 0.82 0.87 0.94 0.97 0.77 0.62 0.58 0.60 0.65 0.71 0.79 1.02 1.26